Weather History for LFPC - December, 2012

Change the Weather History Date:

Thursday, December 13, 2012

  Actual Average Record
Temperature  
Mean Temperature 32 °F -  
Max Temperature 39 °F 43 °F - ()
Min Temperature 24 °F 34 °F - ()
Degree Days  
Heating Degree Days 34    
Moisture  
Dew Point 29 °F    
Average Humidity 89    
Maximum Humidity 100    
Minimum Humidity 75    
Precipitation  
Precipitation 0.00 in - - ()
Sea Level Pressure  
Sea Level Pressure 29.73 in    
Wind  
Wind Speed 5 mph ()    
Max Wind Speed 9 mph    
Max Gust Speed -    
Visibility 4.4 miles    
Events Rain    
T = Trace of Precipitation, MM = Missing Value Source: Averaged Metar Reports

Daily Weather History Graph

Daily Weather History Graph

Search for Another Location

Airport or City:

Trip Planner

Search our weather history database for the weather conditions in past years. The results will help you decide how hot, cold, wet, or windy it might be!

Date:

Astronomy

Dec. 13, 2012 Rise Set
Actual Time 8:37 AM CET 4:51 PM CET
Civil Twilight 7:59 AM CET 5:28 PM CET
Nautical Twilight 7:18 AM CET 6:09 PM CET
Astronomical Twilight 6:40 AM CET 6:48 PM CET
Moon 8:28 AM CET (12/13) 5:18 PM CET (12/13)
Length of Visible Light 9h 29m
Length of Day
8h 14m
New Moon, 0% of the Moon is Illuminated
Dec 13
New Moon
Dec 20
First Quarter
Dec 28
Full
Jan 5
Last Quarter
Jan 11
New

Hourly Weather History & Observations

Time (CET) Temp. Windchill Dew Point Humidity Pressure Visibility Wind Dir Wind Speed Gust Speed Precip Events Conditions
12:00 AM 28.4 °F 23.3 °F 23.0 °F 80% 29.92 in 6.2 mi ESE 4.6 mph - N/A   Unknown
12:30 AM 26.6 °F 22.6 °F 21.2 °F 80% 29.92 in 6.2 mi ESE 3.5 mph - N/A   Unknown
1:00 AM 26.6 °F 20.0 °F 21.2 °F 80% 29.89 in 6.2 mi ESE 5.8 mph - N/A   Unknown
1:30 AM 26.6 °F 21.2 °F 21.2 °F 80% 29.89 in 6.2 mi ESE 4.6 mph - N/A   Unknown
2:00 AM 26.6 °F 20.0 °F 21.2 °F 80% 29.86 in 6.2 mi ESE 5.8 mph - N/A   Unknown
2:30 AM 26.6 °F 22.6 °F 23.0 °F 86% 29.86 in 6.2 mi SE 3.5 mph - N/A   Unknown
3:00 AM 26.6 °F 22.6 °F 21.2 °F 80% 29.86 in 6.2 mi SE 3.5 mph - N/A   Unknown
3:30 AM 24.8 °F 20.5 °F 21.2 °F 86% 29.86 in 6.2 mi Variable 3.5 mph - N/A   Unknown
4:00 AM 24.8 °F 20.5 °F 21.2 °F 86% 29.83 in 6.2 mi Variable 3.5 mph - N/A   Unknown
4:30 AM 24.8 °F 19.1 °F 21.2 °F 86% 29.83 in 6.2 mi SE 4.6 mph - N/A   Unknown
5:00 AM 26.6 °F 21.2 °F 21.2 °F 80% 29.80 in 6.2 mi SE 4.6 mph - N/A   Unknown
5:30 AM 24.8 °F 17.9 °F 21.2 °F 86% 29.80 in 6.2 mi ESE 5.8 mph - N/A   Unknown
6:00 AM 24.8 °F 20.5 °F 21.2 °F 86% 29.80 in 6.2 mi ESE 3.5 mph - N/A   Unknown
6:30 AM 24.8 °F 20.5 °F 21.2 °F 86% 29.77 in 5.6 mi ESE 3.5 mph - N/A   Unknown
7:00 AM 24.8 °F 19.1 °F 23.0 °F 93% 29.77 in 5.6 mi ESE 4.6 mph - N/A   Unknown
7:30 AM 26.6 °F 21.2 °F 23.0 °F 86% 29.77 in 5.6 mi ESE 4.6 mph - N/A   Unknown
8:00 AM 26.6 °F 22.6 °F 23.0 °F 86% 29.77 in 5.6 mi Variable 3.5 mph - N/A   Unknown
8:30 AM 26.6 °F 22.6 °F 23.0 °F 86% 29.77 in 6.2 mi Variable 3.5 mph - N/A   Unknown
9:00 AM 26.6 °F 21.2 °F 23.0 °F 86% 29.74 in 5.6 mi SE 4.6 mph - N/A   Unknown
9:30 AM 26.6 °F 20.0 °F 23.0 °F 86% 29.74 in 6.2 mi SE 5.8 mph - N/A   Mostly Cloudy
10:00 AM 28.4 °F 19.7 °F 23.0 °F 80% 29.74 in 6.2 mi SE 9.2 mph - N/A   Overcast
10:30 AM 28.4 °F 19.7 °F 24.8 °F 86% 29.74 in 6.2 mi SE 9.2 mph - N/A   Overcast
11:00 AM 30.2 °F 21.9 °F 24.8 °F 80% 29.74 in 6.2 mi SE 9.2 mph - N/A   Overcast
11:30 AM 32.0 °F 24.8 °F 26.6 °F 80% 29.74 in 6.2 mi SSE 8.1 mph - N/A   Overcast
12:00 PM 32.0 °F 24.8 °F 26.6 °F 80% 29.71 in 6.2 mi SSE 8.1 mph - N/A   Overcast
12:30 PM 33.8 °F 27.0 °F 26.6 °F 75% 29.71 in 6.2 mi SSE 8.1 mph - N/A   Overcast
1:00 PM 33.8 °F 27.0 °F 28.4 °F 81% 29.71 in 6.2 mi SSE 8.1 mph - N/A Rain Light Rain
1:30 PM 33.8 °F 27.0 °F 30.2 °F 87% 29.68 in 6.2 mi SSE 8.1 mph - N/A Rain Light Rain
2:00 PM 33.8 °F 27.0 °F 30.2 °F 87% 29.68 in 5.6 mi SSE 8.1 mph - N/A   Overcast
2:30 PM 33.8 °F 27.7 °F 32.0 °F 93% 29.68 in 1.6 mi SSE 6.9 mph - N/A   Overcast
3:00 PM 33.8 °F 28.6 °F 33.8 °F 100% 29.65 in - SSE 5.8 mph - N/A   Overcast
3:30 PM 35.6 °F 31.7 °F 33.8 °F 93% 29.65 in 1.6 mi SSE 4.6 mph - N/A   Drizzle
4:00 PM 35.6 °F 32.8 °F 33.8 °F 93% 29.65 in 1.1 mi SSE 3.5 mph - N/A   Heavy Drizzle
4:30 PM 35.6 °F 30.7 °F 35.6 °F 100% 29.65 in 1.7 mi SSE 5.8 mph - N/A   Overcast
5:00 PM 35.6 °F 30.7 °F 35.6 °F 100% 29.65 in 1.2 mi SSE 5.8 mph - N/A   Light Drizzle
5:30 PM 35.6 °F 29.9 °F 35.6 °F 100% 29.65 in 1.1 mi SSE 6.9 mph - N/A   Overcast
6:00 PM 37.4 °F 31.4 °F 35.6 °F 93% 29.65 in 0.9 mi SSE 8.1 mph - N/A   Overcast
6:30 PM 37.4 °F 32.1 °F 37.4 °F 100% 29.65 in 0.7 mi SSE 6.9 mph - N/A   Overcast
7:00 PM 37.4 °F 32.1 °F 37.4 °F 100% 29.65 in 0.8 mi SSE 6.9 mph - N/A   Overcast
7:30 PM 37.4 °F 32.1 °F 37.4 °F 100% 29.65 in 1.1 mi SSE 6.9 mph - N/A   Overcast
8:00 PM 37.4 °F 31.4 °F 37.4 °F 100% 29.65 in 1.4 mi SSE 8.1 mph - N/A   Overcast
8:30 PM 37.4 °F 32.8 °F 37.4 °F 100% 29.65 in 1.5 mi SSE 5.8 mph - N/A Rain Light Rain
9:00 PM 37.4 °F 32.1 °F 37.4 °F 100% 29.65 in 1.5 mi SSE 6.9 mph - N/A Rain Light Rain
9:30 PM 37.4 °F 32.8 °F 37.4 °F 100% 29.65 in 1.8 mi SSE 5.8 mph - N/A Rain Light Rain
10:00 PM 37.4 °F 32.8 °F 37.4 °F 100% 29.62 in 1.9 mi SSE 5.8 mph - N/A   Overcast
10:30 PM 39.2 °F 34.2 °F 39.2 °F 100% 29.62 in - SE 6.9 mph - N/A   Overcast
11:00 PM 39.2 °F 34.2 °F 39.2 °F 100% 29.62 in - SE 6.9 mph - N/A   Overcast
11:30 PM 39.2 °F 34.2 °F 37.4 °F 93% 29.62 in 2.8 mi SE 6.9 mph - N/A   Overcast